Location: Saint Louis
(38.6272°N, 90.1978°W)
Time: 09:59:46
(UTC-05:00)

ISS - Pass Details

Date: 19 April 2013
Orbit: 402 x 404 km, 51.6° (Epoch: 25 May)

Event Time Altitude Azimuth Distance (km) Brightness Sun altitude
Rises 20:50:53 0° 316° (NW) 2,441 2.1 -13.4°
Reaches altitude 10° 20:53:27 10° 334° (NNW) 1,566 0.5 -13.9°
Maximum altitude 20:56:07 20° 24° (NNE) 1,093 -1.1 -14.3°
Enters shadow 20:57:57 14° 62° (ENE) 1,333 -1.0 -14.6°
